Regional Weather Roundup
Issued by NWS

Home | Current Version | Previous Version | Text Only | Print | Product List | Glossary On
Versions: 1 2 3 4 5 6 7 8 9 10 11 12 13 14 15 16 17 18 19 20 21 22 23 24 25 26 27
000
ASUS46 KPQR 021310
RWROR

OREGON REGIONAL WEATHER ROUNDUP
NATIONAL WEATHER SERVICE PORTLAND OR
600 AM PDT MON MAY 02 2016

NOTE: "FAIR" INDICATES FEW OR NO CLOUDS BELOW 12,000 FEET WITH
NO SIGNIFICANT WEATHER AND/OR OBSTRUCTIONS TO VISIBILITY.

ORZ001>013-021400-
NORTHWEST OREGON


CITY           SKY/WX    TMP DP  RH WIND       PRES   REMARKS
ASTORIA        CLEAR     57  46  66 E6        29.89R HAZE
NEWPORT        CLEAR     52  46  82 E6        29.94R
PORTLAND       PTCLDY    55  49  80 NW3       29.93S
VANCOUVER WA   PTCLDY    50  44  80 CALM      29.93R
SCAPPOOSE      CLEAR     50  44  80 CALM      29.92S
HILLSBORO      CLEAR     47  44  90 W3        29.92S
AURORA         CLEAR     54  44  69 CALM      29.92R
MCMINNVILLE    PTCLDY    50  45  83 CALM      29.93R
SALEM          CLEAR     50  44  80 CALM      29.92R
CORVALLIS        N/A     48  46  93 CALM      29.94S
EUGENE         PTCLDY    50  47  89 SW3       29.94R
$$

ORZ021-028-021400-
SOUTHWEST OREGON


CITY           SKY/WX    TMP DP  RH WIND       PRES   REMARKS
NORTH BEND     CLEAR     52  48  87 SE7       29.95S
ROSEBURG       PTCLDY    53  49  86 CALM      29.96R
SEXTON SUMMIT  PTCLDY    56  28  34 SW5       30.02F
MEDFORD        MOCLDY    52  43  71 CALM      29.99R
$$

ORZ014>016-041-021400-
COLUMBIA GORGE


CITY           SKY/WX    TMP DP  RH WIND       PRES   REMARKS
TROUTDALE      PTCLDY    65  41  41 E21G28    29.92S
THE DALLES     CLEAR     46  39  76 NE3       30.04R
$$

ORZ029>031-041-044-049-050-061>064-502-503-505>511-021400-
EASTERN OREGON


CITY           SKY/WX    TMP DP  RH WIND       PRES   REMARKS
REDMOND        CLEAR     35  29  78 SE5       30.08S WCI  31
BEND           CLEAR     41  34  75 S3        30.08S
PRINEVILLE     CLEAR     34  32  93 CALM      30.09S
KLAMATH FALLS  CLOUDY    39  34  82 NE3       30.07R
LAKEVIEW       CLEAR     36  27  69 NW9       30.10S WCI  29
HERMISTON      CLEAR     44  40  85 S5        30.04R
PENDLETON      CLEAR     48  41  76 SE6       30.05R
JOHN DAY       CLEAR     44  34  67 E12       30.12S
MEACHAM        CLEAR     33  30  88 CALM      30.12R
LA GRANDE      PTCLDY    39  30  70 S3        30.13R
BAKER CITY     MOCLDY    39  35  86 CALM      30.15R
BURNS          CLEAR     31  27  85 NW5       30.13R WCI  26
ROME             N/A     33  28  81 SE6       30.11R WCI  28
ONTARIO        CLEAR     42  37  82 W3        30.13R
$$




USA.gov is the U.S. government's official web portal to all federal, state and local government web resources and services.